[[{"header":{"parameterUnit":"m.s-1","parameterCategory":2,"la1":30.2991,"la2":30.254,"lo1":-89.0895,"lo2":-89.0444,"dy":0.0017,"dx":0.0017,"nx":28,"ny":28,"refTime":"2024-05-29T21:00:00:Z","depth":"0","parameterNumber":2,"parameterNumberName":"U-component_of_CURRENTS"},"data":[0,0,0,0,0,0,0,0,0,0,0,0,0,0,0,0,0,0,0,0,0,0,0,0,0,0,0,0,0,0,0,0,0,0,0,0,0,0,0,0,0,0,0,0,0,0,0,0,0,0,0,0,0,0,0,0,0,0,-0.1855,-0.1855,0,-0.1852,-0.1852,-0.1852,-0.1853,-0.1853,-0.1853,-0.1853,-0.1879,-0.188,-0.1881,0,0,0,0,0,0,0,0,0,0,0,0,0,-0.1835,-0.1836,-0.1855,-0.1855,-0.1855,-0.1852,-0.1852,-0.1853,-0.1853,-0.1853,-0.1853,-0.1853,-0.1879,-0.188,-0.1881,0,0,0,0,0,0,0,0,0,0,0,0,0,-0.1841,-0.1836,-0.1855,-0.1854,-0.1853,-0.1852,-0.1852,-0.1853,-0.1853,-0.1853,-0.1853,-0.1853,-0.1879,-0.188,-0.1881,-0.1892,0,0,-0.1885,-0.1885,0,0,0,0,0,0,0,0,-0.1841,-0.1842,-0.1854,-0.1854,-0.1853,-0.1851,-0.1855,-0.1867,-0.1853,-0.1855,-0.1853,-0.1853,-0.1872,-0.1873,-0.1875,-0.1893,-0.1894,-0.1885,-0.1886,-0.1886,-0.1886,0,0,0,0,0,0,0,-0.184,-0.1842,-0.1856,-0.1854,-0.1853,-0.1843,-0.1845,-0.1857,-0.1866,-0.1855,-0.1855,-0.1851,-0.1872,-0.1874,-0.1876,-0.1895,-0.1885,-0.1886,-0.1887,-0.1887,-0.1956,-0.1957,0,0,0,0,0,0,-0.1839,-0.1842,-0.1856,-0.1856,-0.1844,-0.1844,-0.1845,-0.1854,-0.1866,-0.1866,-0.1851,-0.1851,-0.1872,-0.1875,-0.1877,-0.1921,-0.1886,-0.1887,-0.1888,-0.1955,-0.1956,-0.1957,0,0,0,0,0,0,-0.1838,-0.184,-0.1856,-0.1846,-0.1847,-0.1845,-0.1854,-0.1854,-0.1859,-0.1862,-0.1864,-0.1857,-0.1872,-0.1875,-0.1909,-0.1921,-0.1888,-0.1889,-0.1954,-0.1955,-0.1957,-0.1989,0,0,0,0,0,0,-0.1838,-0.1841,-0.1854,-0.1847,-0.1848,-0.187,-0.1854,-0.1854,-0.1856,-0.1856,-0.1867,-0.1869,-0.1872,-0.1907,-0.191,-0.1922,-0.189,-0.1952,-0.1954,-0.1956,-0.1987,-0.1992,-0.1996,0,0,0,0,0,-0.1838,-0.1871,-0.1855,-0.1857,-0.1864,-0.1871,-0.1872,-0.1869,-0.1856,-0.1871,-0.1882,-0.1869,-0.1922,-0.191,-0.1913,-0.1925,-0.1951,-0.1954,-0.1956,-0.1985,-0.1991,-0.1996,0,0,0,0,0,0,-0.1873,-0.1873,-0.1856,-0.1887,-0.1879,-0.1871,-0.1885,-0.1872,-0.189,-0.1893,-0.1889,-0.1894,-0.1931,-0.1925,-0.1911,-0.1951,-0.1932,-0.1935,-0.1952,-0.1958,-0.1963,-0.1977,-0.1891,0,0,0,0,0,-0.1882,-0.1904,-0.189,-0.1911,-0.1909,-0.1891,-0.1894,-0.189,-0.1897,-0.1903,-0.191,-0.1921,-0.1942,-0.1948,-0.197,-0.1989,-0.199,-0.1997,-0.2002,-0.2006,-0.2021,-0.2026,-0.2033,-0.1966,-0.1966,-0.1965,0,0,-0.1895,-0.1901,-0.191,-0.1919,-0.191,-0.1927,-0.1894,-0.1905,-0.1921,-0.1905,-0.194,-0.1946,-0.1955,-0.1987,-0.2,-0.1981,-0.2028,-0.2009,-0.2012,-0.2025,-0.203,-0.2036,-0.2042,-0.1967,-0.1967,-0.1967,0,0,-0.1936,-0.1939,-0.1966,-0.197,-0.1966,-0.196,-0.1962,-0.1957,-0.1958,-0.1982,-0.1982,-0.1998,-0.2017,-0.2031,-0.2037,-0.2079,-0.2062,-0.2076,-0.21,-0.2105,-0.2111,-0.2115,-0.2133,-0.2139,-0.2066,-0.2066,-0.2066,0,-0.1947,-0.1984,-0.1973,-0.2002,-0.201,-0.1976,-0.2002,-0.2004,-0.2013,-0.2017,-0.2002,-0.2035,-0.2041,-0.2076,-0.2092,-0.209,-0.2092,-0.2075,-0.211,-0.2115,-0.2119,-0.2137,-0.2143,-0.2068,-0.2068,-0.2067,-0.2067,0,-0.2003,-0.2034,-0.2052,-0.2075,-0.2086,-0.2104,-0.2096,-0.2107,-0.2091,-0.2084,-0.2108,-0.211,-0.2124,-0.2123,-0.2122,-0.2155,-0.2148,-0.2123,-0.2094,-0.2128,-0.2144,-0.215,-0.207,-0.207,-0.2069,-0.2069,0,0,-0.2008,-0.2077,-0.208,-0.2108,-0.2126,-0.214,-0.2167,-0.2177,-0.2198,-0.2182,-0.2203,-0.2219,-0.2196,-0.2203,-0.2191,-0.2193,-0.2226,-0.2171,-0.217,-0.2186,-0.2247,-0.228,-0.2289,-0.2199,-0.22,-0.2201,-0.2249,0,-0.2042,-0.2121,-0.2142,-0.2205,-0.2237,-0.2231,-0.2264,-0.2271,-0.2265,-0.2282,-0.225,-0.2273,-0.223,-0.2237,-0.223,-0.2227,-0.2242,-0.2216,-0.2216,-0.2217,-0.2237,-0.2297,-0.2269,-0.2312,-0.2255,-0.2256,-0.2256,0,-0.2073,-0.2129,-0.22,-0.2275,-0.2287,-0.232,-0.2356,-0.2381,-0.2388,-0.2381,-0.2368,-0.2349,-0.2347,-0.2308,-0.2302,-0.2282,-0.2281,-0.2273,-0.2273,-0.2299,-0.226,-0.2268,-0.2325,-0.2251,-0.2265,-0.2265,-0.2264,0,-0.2071,-0.2163,-0.2223,-0.2248,-0.2325,-0.2353,-0.2383,-0.2406,-0.2428,-0.2439,-0.2451,-0.2429,-0.2422,-0.2398,-0.2358,-0.2336,-0.2356,-0.2319,-0.2355,-0.2356,-0.2333,-0.2332,-0.2318,-0.2349,-0.2348,-0.2348,-0.2348,0,-0.2093,-0.2142,-0.2232,-0.2267,-0.2341,-0.2378,-0.244,-0.2462,-0.2493,-0.2527,-0.2497,-0.2515,-0.2445,-0.2432,-0.2394,-0.2391,-0.2378,-0.2389,-0.238,-0.2346,-0.2345,-0.228,-0.2212,-0.235,-0.235,-0.2349,-0.2349,0,-0.2072,-0.2133,-0.2211,-0.2309,-0.2342,-0.2387,-0.2472,-0.2521,-0.2541,-0.2583,-0.2587,-0.2579,-0.2569,-0.2513,-0.2488,-0.2452,-0.2392,-0.2449,-0.2423,-0.2412,-0.2386,-0.232,-0.2284,-0.2247,-0.2508,-0.251,-0.2511,0,-0.2067,-0.2103,-0.2226,-0.2285,-0.2332,-0.241,-0.2472,-0.2527,-0.2571,-0.2622,-0.2644,-0.2657,-0.2676,-0.2646,-0.2614,-0.2587,-0.2445,-0.251,-0.2478,-0.2411,-0.2329,-0.2259,-0.2223,-0.2457,-0.2457,-0.2457,-0.2458,0,-0.2048,-0.2088,-0.2161,-0.2278,-0.2362,-0.2442,-0.2526,-0.2563,-0.2625,-0.2669,-0.2719,-0.2749,-0.2784,-0.2756,-0.2723,-0.2668,-0.2424,-0.2522,-0.2445,-0.2301,-0.2228,-0.2177,-0.2403,-0.2461,-0.2461,-0.2461,-0.2461,-0.246,-0.202,-0.2071,-0.2166,-0.2264,-0.2365,-0.2435,-0.245,-0.2536,-0.2586,-0.2591,-0.2723,-0.2696,-0.2761,-0.2751,-0.2742,-0.2598,-0.2546,-0.2453,-0.2385,-0.2327,-0.2272,-0.2531,-0.2582,-0.2582,-0.2583,-0.2583,-0.2583,0,-0.1978,-0.2053,-0.215,-0.2268,-0.2338,-0.2389,-0.2457,-0.2418,-0.2432,-0.2477,-0.2528,-0.2534,-0.2582,-0.2566,-0.2517,-0.2436,-0.2397,-0.2297,-0.2162,-0.2138,-0.2367,-0.2348,-0.2359,-0.2359,-0.2359,-0.2359,-0.2359,-0.2359,-0.1969,-0.2038,-0.209,-0.218,-0.2256,-0.2253,-0.2244,-0.2181,-0.2147,-0.2063,-0.2008,-0.2085,-0.2063,-0.2214,-0.2146,-0.2125,-0.202,-0.1993,-0.1953,-0.2073,-0.2081,-0.2088,-0.2057,-0.2006,-0.2006,-0.1721,-0.1718,-0.1716]},{"header":{"parameterUnit":"m.s-1","parameterCategory":2,"la1":30.2991,"la2":30.254,"lo1":-89.0895,"lo2":-89.0444,"dy":0.0017,"dx":0.0017,"nx":28,"ny":28,"refTime":"2024-05-29T21:00:00:Z","depth":"0","parameterNumber":3,"parameterNumberName":"V-component_of_CURRENTS"},"data":[0,0,0,0,0,0,0,0,0,0,0,0,0,0,0,0,0,0,0,0,0,0,0,0,0,0,0,0,0,0,0,0,0,0,0,0,0,0,0,0,0,0,0,0,0,0,0,0,0,0,0,0,0,0,0,0,0,0,-0.0557,-0.0557,0,-0.0513,-0.0512,-0.0512,-0.0512,-0.0512,-0.0513,-0.0514,-0.0445,-0.0443,-0.0441,0,0,0,0,0,0,0,0,0,0,0,0,0,-0.0527,-0.0529,-0.0557,-0.0557,-0.0556,-0.0513,-0.0512,-0.0512,-0.0512,-0.0513,-0.0513,-0.0514,-0.0446,-0.0443,-0.044,0,0,0,0,0,0,0,0,0,0,0,0,0,-0.0518,-0.0529,-0.0557,-0.0551,-0.055,-0.0513,-0.0512,-0.0511,-0.0512,-0.0513,-0.0513,-0.0514,-0.0447,-0.0443,-0.044,-0.0401,0,0,-0.0429,-0.0428,0,0,0,0,0,0,0,0,-0.0519,-0.0519,-0.0552,-0.0551,-0.055,-0.0519,-0.0476,-0.0473,-0.0511,-0.0526,-0.0514,-0.0515,-0.0467,-0.0462,-0.0452,-0.0398,-0.0395,-0.0429,-0.0427,-0.0425,-0.0424,0,0,0,0,0,0,0,-0.0519,-0.052,-0.054,-0.0552,-0.055,-0.0511,-0.0511,-0.0475,-0.0492,-0.0525,-0.0525,-0.0519,-0.0466,-0.0455,-0.045,-0.0394,-0.0429,-0.0426,-0.0424,-0.0422,-0.0318,-0.0318,0,0,0,0,0,0,-0.053,-0.0522,-0.0541,-0.0538,-0.0536,-0.0511,-0.0512,-0.0528,-0.0493,-0.0489,-0.0519,-0.052,-0.0461,-0.0454,-0.0448,-0.0406,-0.0425,-0.0422,-0.042,-0.0319,-0.0318,-0.0317,0,0,0,0,0,0,-0.053,-0.0533,-0.0543,-0.0527,-0.0526,-0.0511,-0.0529,-0.0527,-0.0518,-0.0488,-0.0484,-0.0513,-0.0461,-0.0453,-0.0415,-0.0403,-0.042,-0.0417,-0.032,-0.0319,-0.0318,-0.0319,0,0,0,0,0,0,-0.0529,-0.0534,-0.0545,-0.0529,-0.0527,-0.0523,-0.0528,-0.0525,-0.0513,-0.0513,-0.0481,-0.0476,-0.0461,-0.0421,-0.0412,-0.0399,-0.0414,-0.032,-0.0319,-0.0318,-0.0319,-0.0318,-0.0316,0,0,0,0,0,-0.0529,-0.0538,-0.0546,-0.0548,-0.0545,-0.0522,-0.0518,-0.0509,-0.0512,-0.0505,-0.0483,-0.0477,-0.0407,-0.0417,-0.0407,-0.0393,-0.0321,-0.032,-0.0318,-0.032,-0.0318,-0.0316,0,0,0,0,0,0,-0.0515,-0.0538,-0.0547,-0.056,-0.0545,-0.0523,-0.0512,-0.0506,-0.0483,-0.0485,-0.0461,-0.0453,-0.0416,-0.0402,-0.0414,-0.036,-0.0365,-0.0362,-0.037,-0.0368,-0.0367,-0.0361,-0.0411,0,0,0,0,0,-0.0522,-0.0546,-0.0543,-0.0549,-0.0545,-0.0529,-0.0517,-0.0513,-0.0491,-0.0483,-0.0459,-0.0432,-0.04,-0.0384,-0.0354,-0.0319,-0.0309,-0.0306,-0.0304,-0.0303,-0.0292,-0.0271,-0.0267,-0.0312,-0.0312,-0.0313,0,0,-0.0514,-0.053,-0.0541,-0.0548,-0.0537,-0.0524,-0.0524,-0.0509,-0.0493,-0.0477,-0.0444,-0.0421,-0.0389,-0.0353,-0.0336,-0.0342,-0.0286,-0.0301,-0.0301,-0.029,-0.0269,-0.0265,-0.0261,-0.0311,-0.0312,-0.0312,0,0,-0.0504,-0.0528,-0.0542,-0.0535,-0.0528,-0.0517,-0.0514,-0.0494,-0.0484,-0.0449,-0.0435,-0.0401,-0.0355,-0.0329,-0.031,-0.0278,-0.0276,-0.0278,-0.0266,-0.0247,-0.0243,-0.0239,-0.0227,-0.0223,-0.0281,-0.0281,-0.0281,0,-0.049,-0.0518,-0.0532,-0.0533,-0.0524,-0.0515,-0.0506,-0.0486,-0.0454,-0.0437,-0.044,-0.0363,-0.0339,-0.0289,-0.0283,-0.0273,-0.027,-0.0278,-0.0245,-0.0241,-0.0238,-0.0226,-0.0221,-0.0281,-0.0281,-0.0281,-0.0281,0,-0.049,-0.0504,-0.0503,-0.0515,-0.0502,-0.0492,-0.0474,-0.0455,-0.0441,-0.0419,-0.0369,-0.0334,-0.0291,-0.0281,-0.027,-0.0231,-0.0241,-0.0245,-0.0252,-0.0233,-0.0222,-0.0217,-0.028,-0.028,-0.028,-0.028,0,0,-0.0481,-0.0503,-0.0504,-0.0513,-0.0498,-0.0491,-0.0458,-0.0427,-0.0408,-0.037,-0.0335,-0.0277,-0.0264,-0.0241,-0.0226,-0.0208,-0.0182,-0.022,-0.0219,-0.0213,-0.015,-0.0133,-0.0126,-0.0191,-0.019,-0.0189,-0.0156,0,-0.0475,-0.0493,-0.0495,-0.0489,-0.0494,-0.0473,-0.0447,-0.0416,-0.0382,-0.0345,-0.03,-0.0261,-0.0249,-0.0235,-0.021,-0.0188,-0.0168,-0.0191,-0.0165,-0.0164,-0.0154,-0.0118,-0.0047,-0.0009,-0.0151,-0.015,-0.0149,0,-0.048,-0.0496,-0.0503,-0.0504,-0.0502,-0.0487,-0.0454,-0.0428,-0.0366,-0.034,-0.0285,-0.0253,-0.02,-0.0206,-0.0146,-0.0168,-0.0154,-0.0141,-0.014,-0.0116,-0.0136,-0.0049,0.0005,0.0154,-0.0141,-0.0142,-0.0142,0,-0.0498,-0.0502,-0.0517,-0.0515,-0.0506,-0.0494,-0.0479,-0.0425,-0.0409,-0.0335,-0.0316,-0.0242,-0.0218,-0.0177,-0.0137,-0.0148,-0.0085,-0.0097,-0.0063,-0.0063,0.001,0.0016,0.0212,-0.0054,-0.0054,-0.0054,-0.0054,0,-0.0507,-0.0517,-0.0531,-0.0539,-0.0548,-0.0522,-0.0508,-0.0475,-0.0426,-0.0415,-0.0323,-0.0303,-0.0214,-0.0166,-0.0131,-0.0074,-0.0077,-0.0044,-0.0044,0.0011,0.0016,0.0157,0.0178,-0.0053,-0.0053,-0.0053,-0.0053,0,-0.0529,-0.0537,-0.056,-0.0562,-0.0563,-0.057,-0.0554,-0.0548,-0.0485,-0.0465,-0.0447,-0.0351,-0.0281,-0.0189,-0.012,-0.0073,0.005,-0.0003,0.0055,0.0062,0.0232,0.0247,0.0348,0.0399,0.0049,0.005,0.005,0,-0.0538,-0.0559,-0.0593,-0.0622,-0.0626,-0.0631,-0.0642,-0.0589,-0.0584,-0.0511,-0.0515,-0.0417,-0.0377,-0.0232,-0.0082,0.0025,0.0079,0.0129,0.0133,0.0275,0.0292,0.0271,0.0305,0.0226,0.0228,0.023,0.0231,0,-0.0561,-0.0584,-0.0617,-0.0688,-0.0716,-0.0742,-0.0747,-0.0754,-0.07,-0.0686,-0.0669,-0.0626,-0.0406,-0.0213,-0.0013,0.0047,0.0232,0.0163,0.0311,0.0457,0.0448,0.0485,0.0159,0.0246,0.0244,0.0243,0.0243,0.0242,-0.0584,-0.063,-0.0698,-0.0768,-0.0814,-0.0872,-0.0912,-0.0912,-0.0934,-0.0921,-0.0834,-0.0705,-0.0306,0.0004,0.0096,0.0437,0.0328,0.0512,0.0519,0.0486,0.0548,0.0248,0.033,0.0329,0.0328,0.0327,0.0327,0,-0.0622,-0.0697,-0.0775,-0.0881,-0.0975,-0.096,-0.1009,-0.1047,-0.1111,-0.1,-0.0985,-0.0488,-0.0145,0.0248,0.0708,0.082,0.082,0.0869,0.0904,0.0919,0.0686,0.0714,0.0884,0.0884,0.0884,0.0883,0.0883,0.0883,-0.0651,-0.0754,-0.0818,-0.101,-0.1089,-0.1203,-0.1244,-0.1272,-0.1194,-0.1023,-0.0717,-0.0445,0.0166,0.0806,0.1195,0.1201,0.128,0.123,0.1248,0.1159,0.1128,0.1099,0.1139,0.1394,0.1395,0.1512,0.1513,0.1514]}],[{"header":{"parameterUnit":"m.s-1","parameterCategory":2,"la1":30.2991,"la2":30.254,"lo1":-89.0895,"lo2":-89.0444,"dy":0.0017,"dx":0.0017,"nx":28,"ny":28,"refTime":"2024-05-29T21:00:00:Z","depth":"2","parameterNumber":2,"parameterNumberName":"U-component_of_CURRENTS"},"data":[0,0,0,0,0,0,0,0,0,0,0,0,0,0,0,0,0,0,0,0,0,0,0,0,0,0,0,0,0,0,0,0,0,0,0,0,0,0,0,0,0,0,0,0,0,0,0,0,0,0,0,0,0,0,0,0,0,0,-0.0895,-0.0896,0,-0.0866,-0.0864,-0.0863,-0.0798,-0.0798,-0.0799,-0.0799,-0.0612,-0.0607,-0.0602,0,0,0,0,0,0,0,0,0,0,0,0,0,-0.0761,-0.0763,-0.0895,-0.0896,-0.0897,-0.0866,-0.0864,-0.0862,-0.0798,-0.0798,-0.0799,-0.0799,-0.0614,-0.0608,-0.0602,0,0,0,0,0,0,0,0,0,0,0,0,0,-0.077,-0.0764,-0.0895,-0.0873,-0.0872,-0.0866,-0.0864,-0.0862,-0.0798,-0.0798,-0.0799,-0.0799,-0.0616,-0.0608,-0.0601,-0.0551,0,0,-0.0578,-0.0574,0,0,0,0,0,0,0,0,-0.0769,-0.0773,-0.0875,-0.0875,-0.0873,-0.0849,-0.0749,-0.0755,-0.0798,-0.081,-0.0799,-0.0799,-0.0687,-0.0674,-0.0648,-0.0542,-0.0534,-0.0577,-0.0572,-0.0569,-0.0567,0,0,0,0,0,0,0,-0.0769,-0.0773,-0.0868,-0.0877,-0.0876,-0.082,-0.082,-0.0749,-0.0733,-0.0809,-0.0808,-0.0829,-0.0683,-0.0655,-0.0643,-0.0531,-0.0577,-0.057,-0.0566,-0.0563,-0.0415,-0.0416,0,0,0,0,0,0,-0.0811,-0.0773,-0.0869,-0.0868,-0.0838,-0.0824,-0.0824,-0.0844,-0.0737,-0.0727,-0.0829,-0.0827,-0.0668,-0.0652,-0.0636,-0.0629,-0.0569,-0.0562,-0.0558,-0.0415,-0.0415,-0.0416,0,0,0,0,0,0,-0.0808,-0.082,-0.087,-0.0832,-0.0837,-0.0828,-0.085,-0.0844,-0.0846,-0.0757,-0.074,-0.0843,-0.0668,-0.0647,-0.0624,-0.0619,-0.0559,-0.0552,-0.0414,-0.0415,-0.0416,-0.0577,0,0,0,0,0,0,-0.0804,-0.0818,-0.0832,-0.0835,-0.0841,-0.0868,-0.0852,-0.0844,-0.0865,-0.0861,-0.0763,-0.0744,-0.0666,-0.0637,-0.0617,-0.0607,-0.0546,-0.0413,-0.0414,-0.0415,-0.057,-0.0583,-0.0594,0,0,0,0,0,-0.0799,-0.0798,-0.0832,-0.0844,-0.0865,-0.087,-0.0864,-0.0848,-0.0866,-0.0851,-0.083,-0.0749,-0.0628,-0.0633,-0.0609,-0.0597,-0.0413,-0.0414,-0.0415,-0.0565,-0.058,-0.0593,0,0,0,0,0,0,-0.0774,-0.0794,-0.083,-0.0847,-0.0873,-0.0865,-0.0853,-0.0873,-0.0844,-0.0842,-0.0775,-0.0754,-0.0709,-0.0647,-0.0654,-0.0556,-0.0498,-0.0495,-0.062,-0.0633,-0.0645,-0.0655,-0.0539,0,0,0,0,0,-0.0781,-0.0775,-0.0815,-0.0844,-0.085,-0.087,-0.0873,-0.0873,-0.0865,-0.0852,-0.0808,-0.0749,-0.0689,-0.0667,-0.058,-0.0556,-0.052,-0.0526,-0.0538,-0.0548,-0.054,-0.0495,-0.0503,-0.0421,-0.0421,-0.0421,0,0,-0.0809,-0.0805,-0.0821,-0.0837,-0.0849,-0.0862,-0.0865,-0.0874,-0.0886,-0.0834,-0.0822,-0.0774,-0.0688,-0.0644,-0.0619,-0.0604,-0.0568,-0.055,-0.056,-0.0545,-0.0498,-0.0506,-0.0513,-0.0422,-0.0422,-0.0422,0,0,-0.0835,-0.0836,-0.0842,-0.0846,-0.0866,-0.0859,-0.0882,-0.0892,-0.0883,-0.0905,-0.0848,-0.0835,-0.0762,-0.0699,-0.0662,-0.0691,-0.0614,-0.065,-0.0735,-0.0694,-0.0701,-0.0706,-0.0746,-0.0753,-0.0676,-0.0677,-0.0677,0,-0.0878,-0.0881,-0.0852,-0.0854,-0.0866,-0.0874,-0.0901,-0.0884,-0.0895,-0.0888,-0.0916,-0.0851,-0.0784,-0.0739,-0.0755,-0.0713,-0.0707,-0.0698,-0.0712,-0.0715,-0.0718,-0.0756,-0.0762,-0.0685,-0.0684,-0.0683,-0.0682,0,-0.0906,-0.0915,-0.0912,-0.0914,-0.0912,-0.0924,-0.0922,-0.0914,-0.0941,-0.0942,-0.0932,-0.0902,-0.0872,-0.0848,-0.0822,-0.0794,-0.0793,-0.0721,-0.0686,-0.0736,-0.0774,-0.0777,-0.0696,-0.0693,-0.0691,-0.0689,0,0,-0.1008,-0.0948,-0.0956,-0.0952,-0.0937,-0.0937,-0.0935,-0.0927,-0.0926,-0.0962,-0.0991,-0.0949,-0.0962,-0.0922,-0.0888,-0.0877,-0.0928,-0.0833,-0.0827,-0.0892,-0.0906,-0.1061,-0.1079,-0.0863,-0.0862,-0.0862,-0.0954,0,-0.1062,-0.1051,-0.1009,-0.1025,-0.1023,-0.0992,-0.0982,-0.0966,-0.0967,-0.0975,-0.0981,-0.0976,-0.0979,-0.0996,-0.0993,-0.09,-0.0931,-0.0913,-0.0828,-0.0827,-0.0972,-0.1084,-0.0877,-0.0953,-0.0957,-0.0957,-0.0958,0,-0.11,-0.1082,-0.11,-0.1044,-0.1043,-0.1064,-0.1028,-0.1014,-0.0991,-0.1002,-0.1037,-0.1026,-0.104,-0.1038,-0.1003,-0.0996,-0.0978,-0.094,-0.094,-0.1019,-0.0985,-0.0884,-0.0958,-0.0962,-0.0962,-0.0961,-0.0961,0,-0.1136,-0.1127,-0.113,-0.1126,-0.1086,-0.1101,-0.1086,-0.1049,-0.1011,-0.1035,-0.1053,-0.1061,-0.1098,-0.1057,-0.1054,-0.101,-0.103,-0.0939,-0.1081,-0.1094,-0.0866,-0.086,-0.0928,-0.0928,-0.0927,-0.0927,-0.0927,0,-0.1154,-0.1167,-0.1163,-0.1166,-0.1181,-0.1146,-0.1133,-0.1122,-0.1093,-0.1081,-0.1092,-0.1141,-0.1098,-0.112,-0.1083,-0.1153,-0.1067,-0.1134,-0.1128,-0.093,-0.0929,-0.0857,-0.0848,-0.0931,-0.093,-0.0929,-0.0929,0,-0.118,-0.1174,-0.1182,-0.1183,-0.1195,-0.1212,-0.1166,-0.113,-0.1127,-0.1135,-0.1157,-0.1191,-0.1271,-0.1262,-0.1225,-0.1225,-0.1226,-0.1267,-0.111,-0.1088,-0.1309,-0.1306,-0.1415,-0.1422,-0.1427,-0.1431,-0.1435,0,-0.1186,-0.1198,-0.121,-0.1222,-0.1243,-0.1246,-0.1224,-0.1181,-0.1145,-0.1189,-0.1208,-0.1315,-0.1431,-0.1506,-0.1508,-0.1544,-0.144,-0.1338,-0.1217,-0.1377,-0.1359,-0.1347,-0.1338,-0.0983,-0.0983,-0.0983,-0.0983,0,-0.1223,-0.1236,-0.1235,-0.1235,-0.1254,-0.1216,-0.1209,-0.1202,-0.1171,-0.1244,-0.1387,-0.1502,-0.1636,-0.1618,-0.1672,-0.1622,-0.1317,-0.1348,-0.1481,-0.0944,-0.099,-0.0967,-0.0966,-0.0981,-0.0981,-0.0981,-0.0981,-0.0981,-0.1249,-0.1269,-0.1246,-0.1242,-0.1239,-0.1213,-0.1192,-0.1218,-0.1261,-0.1369,-0.1508,-0.1607,-0.1547,-0.1614,-0.1584,-0.1495,-0.1578,-0.1322,-0.1311,-0.1302,-0.1288,-0.1346,-0.1404,-0.1406,-0.1408,-0.141,-0.1412,0,-0.1222,-0.1244,-0.1241,-0.1213,-0.1167,-0.118,-0.1166,-0.1132,-0.126,-0.14,-0.1585,-0.1449,-0.1452,-0.1367,-0.1284,-0.132,-0.1189,-0.1177,-0.0901,-0.0905,-0.0908,-0.0862,-0.0871,-0.087,-0.0869,-0.0869,0,0,-0.1213,-0.1189,-0.1179,-0.1128,-0.1128,-0.1082,-0.1091,-0.1106,-0.1128,-0.1285,-0.1323,-0.1481,-0.1356,-0.1131,-0.1079,-0.0954,-0.0922,-0.091,-0.1329,-0.1008,-0.1011,-0.0971,-0.0907,0,0,0,0,0]},{"header":{"parameterUnit":"m.s-1","parameterCategory":2,"la1":30.2991,"la2":30.254,"lo1":-89.0895,"lo2":-89.0444,"dy":0.0017,"dx":0.0017,"nx":28,"ny":28,"refTime":"2024-05-29T21:00:00:Z","depth":"2","parameterNumber":3,"parameterNumberName":"V-component_of_CURRENTS"},"data":[0,0,0,0,0,0,0,0,0,0,0,0,0,0,0,0,0,0,0,0,0,0,0,0,0,0,0,0,0,0,0,0,0,0,0,0,0,0,0,0,0,0,0,0,0,0,0,0,0,0,0,0,0,0,0,0,0,0,-0.0383,-0.0383,0,-0.0317,-0.0316,-0.0314,-0.0297,-0.0298,-0.0299,-0.03,-0.0225,-0.0222,-0.0219,0,0,0,0,0,0,0,0,0,0,0,0,0,-0.0292,-0.0294,-0.0383,-0.0383,-0.0383,-0.0317,-0.0315,-0.0314,-0.0297,-0.0298,-0.03,-0.0301,-0.0226,-0.0223,-0.0219,0,0,0,0,0,0,0,0,0,0,0,0,0,-0.0282,-0.0295,-0.0383,-0.0372,-0.0371,-0.0317,-0.0315,-0.0313,-0.0297,-0.0298,-0.03,-0.0302,-0.0227,-0.0223,-0.0219,-0.0157,0,0,-0.0205,-0.0203,0,0,0,0,0,0,0,0,-0.0283,-0.0285,-0.0374,-0.0373,-0.0371,-0.0324,-0.0256,-0.0263,-0.0296,-0.0317,-0.03,-0.0302,-0.0261,-0.0254,-0.0227,-0.0154,-0.0151,-0.0204,-0.0202,-0.02,-0.0198,0,0,0,0,0,0,0,-0.0284,-0.0287,-0.0349,-0.0374,-0.0372,-0.0301,-0.0303,-0.0256,-0.0274,-0.0315,-0.0316,-0.032,-0.026,-0.0231,-0.0225,-0.015,-0.0204,-0.02,-0.0198,-0.0196,-0.0081,-0.0081,0,0,0,0,0,0,-0.0317,-0.0289,-0.0351,-0.0348,-0.0339,-0.0303,-0.0304,-0.0331,-0.0275,-0.0271,-0.0318,-0.0319,-0.0238,-0.0231,-0.0223,-0.0195,-0.02,-0.0195,-0.0193,-0.0081,-0.0081,-0.0081,0,0,0,0,0,0,-0.0315,-0.0324,-0.0354,-0.0321,-0.0321,-0.0305,-0.0334,-0.0329,-0.0313,-0.0279,-0.0273,-0.031,-0.0239,-0.0229,-0.021,-0.0191,-0.0193,-0.0189,-0.0082,-0.0081,-0.0081,-0.011,0,0,0,0,0,0,-0.0313,-0.0324,-0.0344,-0.0324,-0.0324,-0.0331,-0.0333,-0.0327,-0.0316,-0.0316,-0.0269,-0.0263,-0.024,-0.0218,-0.0206,-0.0185,-0.0186,-0.0082,-0.0081,-0.0081,-0.0109,-0.011,-0.0111,0,0,0,0,0,-0.0311,-0.0327,-0.0346,-0.0353,-0.0357,-0.0331,-0.0323,-0.031,-0.0314,-0.0301,-0.029,-0.0265,-0.0205,-0.0214,-0.02,-0.0177,-0.0082,-0.0082,-0.0081,-0.0109,-0.011,-0.0111,0,0,0,0,0,0,-0.0296,-0.0327,-0.0347,-0.0374,-0.0363,-0.0332,-0.0321,-0.0311,-0.0286,-0.0294,-0.0263,-0.0256,-0.0226,-0.0201,-0.0212,-0.0143,-0.0137,-0.0134,-0.0163,-0.0164,-0.0165,-0.0169,-0.0182,0,0,0,0,0,-0.0307,-0.0332,-0.034,-0.0362,-0.0363,-0.0343,-0.033,-0.0322,-0.0304,-0.0294,-0.0267,-0.0239,-0.0205,-0.019,-0.0154,-0.0116,-0.0102,-0.0092,-0.0093,-0.0094,-0.0089,-0.0064,-0.0063,-0.0078,-0.0078,-0.0078,0,0,-0.0312,-0.0329,-0.0346,-0.036,-0.0353,-0.0344,-0.0337,-0.0323,-0.0309,-0.0288,-0.0262,-0.0237,-0.0197,-0.0163,-0.0146,-0.0144,-0.0085,-0.0093,-0.0095,-0.0089,-0.0063,-0.0062,-0.0061,-0.0078,-0.0078,-0.0078,0,0,-0.0314,-0.0349,-0.0364,-0.0355,-0.0354,-0.0342,-0.0344,-0.032,-0.0306,-0.0288,-0.0264,-0.0241,-0.0194,-0.0157,-0.0135,-0.0116,-0.009,-0.0099,-0.0106,-0.0083,-0.0081,-0.008,-0.0075,-0.0072,-0.0102,-0.0102,-0.0102,0,-0.0313,-0.0348,-0.0356,-0.0355,-0.0353,-0.0347,-0.0344,-0.0318,-0.0289,-0.0274,-0.0293,-0.0219,-0.019,-0.0132,-0.0134,-0.0116,-0.0109,-0.0107,-0.0085,-0.0083,-0.0081,-0.0076,-0.0073,-0.0103,-0.0103,-0.0103,-0.0103,0,-0.0322,-0.0343,-0.0345,-0.0359,-0.0348,-0.0343,-0.0327,-0.031,-0.031,-0.0285,-0.0246,-0.0215,-0.0175,-0.0156,-0.0144,-0.0098,-0.0101,-0.009,-0.0085,-0.0081,-0.0076,-0.0073,-0.0105,-0.0105,-0.0104,-0.0104,0,0,-0.0336,-0.0352,-0.0354,-0.0364,-0.0353,-0.0346,-0.0324,-0.03,-0.0284,-0.0262,-0.0238,-0.0188,-0.0174,-0.0147,-0.0115,-0.0096,-0.0086,-0.0094,-0.0093,-0.0096,-0.0051,0.0002,0.0011,-0.0076,-0.0075,-0.0075,-0.0059,0,-0.0343,-0.0358,-0.0353,-0.0357,-0.0369,-0.0349,-0.0329,-0.03,-0.0281,-0.0252,-0.0213,-0.0179,-0.0166,-0.0155,-0.0131,-0.0088,-0.0076,-0.0093,-0.0048,-0.0046,-0.0005,0.0017,0.0046,0.0069,-0.0055,-0.0055,-0.0054,0,-0.0353,-0.0368,-0.0385,-0.0379,-0.0379,-0.0373,-0.0351,-0.0328,-0.0274,-0.026,-0.022,-0.0185,-0.0135,-0.0143,-0.0078,-0.0092,-0.0077,-0.0056,-0.0055,0.0011,0.0014,0.0049,0.008,-0.0048,-0.0049,-0.0049,-0.005,0,-0.038,-0.0382,-0.0406,-0.0405,-0.0398,-0.0394,-0.0382,-0.0337,-0.0318,-0.0264,-0.0254,-0.0182,-0.0165,-0.0121,-0.0076,-0.008,-0.0021,-0.0019,0.0042,0.0045,0.0089,0.0096,0.0014,0.0014,0.0014,0.0014,0.0014,0,-0.0394,-0.0407,-0.0427,-0.044,-0.0454,-0.043,-0.0421,-0.0395,-0.0355,-0.0339,-0.0265,-0.0244,-0.0163,-0.0114,-0.0076,0.0,-0.002,0.0051,0.0063,0.0079,0.0084,0.0003,0.0001,0.0015,0.0014,0.0014,0.0014,0,-0.042,-0.0433,-0.0463,-0.0473,-0.0474,-0.0489,-0.0466,-0.0454,-0.0411,-0.0393,-0.0381,-0.0294,-0.0219,-0.0132,-0.0059,0.0,0.0067,0.0089,0.0098,0.0113,0.0111,0.0108,0.0172,0.0174,0.0176,0.0177,0.0179,0,-0.0431,-0.0461,-0.05,-0.0525,-0.0535,-0.0543,-0.0544,-0.05,-0.0491,-0.0431,-0.0432,-0.034,-0.0277,-0.012,0.0033,0.015,0.0095,0.0213,0.0229,0.0128,0.0132,0.0126,0.012,0.026,0.0262,0.0263,0.0264,0,-0.0464,-0.0493,-0.0522,-0.0577,-0.06,-0.0611,-0.0612,-0.0616,-0.0571,-0.0561,-0.0539,-0.0479,-0.0256,-0.0072,0.0132,0.0195,0.0211,0.0251,0.015,0.0225,0.0216,0.0218,0.0209,0.0278,0.0277,0.0276,0.0275,0.0274,-0.0489,-0.0529,-0.0581,-0.0627,-0.066,-0.0691,-0.071,-0.0711,-0.0723,-0.0703,-0.0621,-0.0474,-0.0228,0.0122,0.0227,0.035,0.0343,0.0353,0.0346,0.0338,0.0356,0.0351,0.044,0.044,0.044,0.0439,0.0439,0,-0.0513,-0.0568,-0.062,-0.0681,-0.0727,-0.0736,-0.0763,-0.0765,-0.0812,-0.0726,-0.0685,-0.0361,-0.0095,0.0132,0.0372,0.0486,0.0465,0.0463,0.0413,0.0402,0.0391,0.0408,0.0508,0.0508,0.0508,0.0508,0,0,-0.0533,-0.0596,-0.0631,-0.0728,-0.0781,-0.0859,-0.0895,-0.0875,-0.08,-0.0754,-0.0603,-0.0339,-0.0004,0.0173,0.0318,0.0406,0.0353,0.0406,0.0349,0.0262,0.0249,0.0343,0.036,0,0,0,0,0]}],[{"header":{"parameterUnit":"m.s-1","parameterCategory":2,"la1":30.2991,"la2":30.254,"lo1":-89.0895,"lo2":-89.0444,"dy":0.0017,"dx":0.0017,"nx":28,"ny":28,"refTime":"2024-05-29T21:00:00:Z","depth":"4","parameterNumber":2,"parameterNumberName":"U-component_of_CURRENTS"},"data":[0,0,0,0,0,0,0,0,0,0,0,0,0,0,0,0,0,0,0,0,0,0,0,0,0,0,0,0,0,0,0,0,0,0,0,0,0,0,0,0,0,0,0,0,0,0,0,0,0,0,0,0,0,0,0,0,0,0,-0.0405,-0.0405,0,-0.0407,-0.0407,-0.0407,-0.0409,-0.0409,-0.0409,-0.0409,-0.0501,-0.0504,-0.0506,0,0,0,0,0,0,0,0,0,0,0,0,0,-0.0392,-0.0393,-0.0405,-0.0405,-0.0404,-0.0407,-0.0407,-0.0407,-0.0409,-0.0409,-0.0409,-0.0409,-0.05,-0.0503,-0.0506,0,0,0,0,0,0,0,0,0,0,0,0,0,-0.0398,-0.0393,-0.0405,-0.0405,-0.0405,-0.0407,-0.0407,-0.0407,-0.0409,-0.0409,-0.0409,-0.0409,-0.0499,-0.0503,-0.0507,-0.0532,0,0,-0.0519,-0.052,0,0,0,0,0,0,0,0,-0.0397,-0.0398,-0.0405,-0.0405,-0.0405,-0.0406,-0.0436,-0.0453,-0.0409,-0.0409,-0.0409,-0.0409,-0.0477,-0.0483,-0.0484,-0.0537,-0.0541,-0.0519,-0.0521,-0.0523,-0.0524,0,0,0,0,0,0,0,-0.0397,-0.0398,-0.0407,-0.0405,-0.0405,-0.0401,-0.0402,-0.0439,-0.0446,-0.0409,-0.0408,-0.0407,-0.0478,-0.048,-0.0486,-0.0542,-0.0519,-0.0522,-0.0524,-0.0526,-0.0646,-0.0646,0,0,0,0,0,0,-0.0395,-0.0398,-0.0406,-0.0406,-0.0399,-0.0402,-0.0403,-0.0407,-0.0444,-0.0448,-0.0407,-0.0407,-0.0474,-0.0482,-0.049,-0.0531,-0.0523,-0.0526,-0.0529,-0.0645,-0.0646,-0.0647,0,0,0,0,0,0,-0.0395,-0.0396,-0.0406,-0.0401,-0.0402,-0.0402,-0.0407,-0.0407,-0.0413,-0.0441,-0.0448,-0.0413,-0.0474,-0.0484,-0.0517,-0.0535,-0.0528,-0.0531,-0.0644,-0.0645,-0.0646,-0.061,0,0,0,0,0,0,-0.0395,-0.0396,-0.0401,-0.0401,-0.0402,-0.041,-0.0407,-0.0407,-0.0412,-0.0412,-0.0449,-0.0457,-0.0475,-0.0511,-0.052,-0.054,-0.0534,-0.0642,-0.0644,-0.0646,-0.061,-0.061,-0.061,0,0,0,0,0,-0.0395,-0.0401,-0.0402,-0.0403,-0.0408,-0.041,-0.0411,-0.0411,-0.0412,-0.0417,-0.0434,-0.0456,-0.0529,-0.0514,-0.0525,-0.0546,-0.0642,-0.0644,-0.0646,-0.061,-0.061,-0.061,0,0,0,0,0,0,-0.0387,-0.0402,-0.0403,-0.041,-0.0411,-0.041,-0.0413,-0.0415,-0.0431,-0.044,-0.046,-0.047,-0.0506,-0.0534,-0.0517,-0.0588,-0.0593,-0.0597,-0.0562,-0.0562,-0.0562,-0.0551,-0.0538,0,0,0,0,0,-0.039,-0.0406,-0.0408,-0.0413,-0.0414,-0.0416,-0.0417,-0.0424,-0.0435,-0.0441,-0.0468,-0.05,-0.0523,-0.0547,-0.0577,-0.0616,-0.0623,-0.0641,-0.0641,-0.064,-0.064,-0.0639,-0.0638,-0.0653,-0.0653,-0.0653,0,0,-0.0387,-0.0397,-0.0405,-0.0414,-0.0414,-0.0424,-0.0417,-0.0427,-0.044,-0.0453,-0.0484,-0.0501,-0.0532,-0.0566,-0.0587,-0.0593,-0.0644,-0.0643,-0.0642,-0.0642,-0.0641,-0.0639,-0.0638,-0.0655,-0.0655,-0.0654,0,0,-0.0386,-0.0398,-0.0409,-0.0416,-0.0426,-0.0434,-0.0439,-0.0452,-0.046,-0.0492,-0.0496,-0.0515,-0.0575,-0.0582,-0.0595,-0.0618,-0.0638,-0.0643,-0.0639,-0.0638,-0.0635,-0.0634,-0.065,-0.065,-0.0648,-0.0648,-0.0648,0,-0.0373,-0.0396,-0.041,-0.0418,-0.043,-0.044,-0.0454,-0.0462,-0.0487,-0.0496,-0.0508,-0.056,-0.058,-0.0597,-0.0596,-0.0617,-0.0623,-0.063,-0.0634,-0.0632,-0.0631,-0.0648,-0.0648,-0.0647,-0.0647,-0.0647,-0.0647,0,-0.0384,-0.04,-0.0405,-0.0429,-0.0445,-0.0459,-0.0477,-0.0494,-0.0516,-0.0528,-0.0558,-0.0574,-0.0602,-0.0613,-0.061,-0.0616,-0.0626,-0.0624,-0.0625,-0.0627,-0.0646,-0.0646,-0.0645,-0.0645,-0.0646,-0.0646,0,0,-0.034,-0.0402,-0.0399,-0.042,-0.0458,-0.0469,-0.0495,-0.0515,-0.053,-0.056,-0.0578,-0.0597,-0.0601,-0.0616,-0.0617,-0.0612,-0.0603,-0.0612,-0.0612,-0.0612,-0.061,-0.056,-0.0557,-0.0594,-0.0594,-0.0593,-0.0629,0,-0.0333,-0.0369,-0.0405,-0.0437,-0.0457,-0.0487,-0.051,-0.0536,-0.0563,-0.0586,-0.0593,-0.0621,-0.0604,-0.0619,-0.0605,-0.0612,-0.0602,-0.0594,-0.0623,-0.0625,-0.0566,-0.0555,-0.0593,-0.0629,-0.063,-0.063,-0.063,0,-0.0315,-0.0352,-0.039,-0.0454,-0.0464,-0.0483,-0.0528,-0.0552,-0.0579,-0.0605,-0.062,-0.0637,-0.064,-0.0625,-0.0624,-0.0619,-0.0605,-0.0604,-0.0606,-0.057,-0.0575,-0.0629,-0.0632,-0.0632,-0.0631,-0.0631,-0.0631,0,-0.0273,-0.0332,-0.0371,-0.039,-0.0463,-0.0476,-0.0506,-0.0545,-0.0576,-0.0608,-0.0651,-0.0651,-0.0682,-0.0652,-0.0655,-0.0637,-0.0657,-0.0638,-0.0582,-0.058,-0.063,-0.0631,-0.0618,-0.0618,-0.0618,-0.0618,-0.0618,0,-0.0244,-0.0266,-0.0351,-0.0365,-0.0402,-0.0458,-0.0488,-0.0517,-0.0575,-0.0607,-0.0649,-0.0672,-0.0688,-0.0707,-0.0671,-0.0639,-0.0672,-0.0576,-0.0576,-0.0618,-0.0617,-0.0631,-0.0632,-0.0619,-0.0619,-0.0619,-0.0618,0,-0.017,-0.0235,-0.0274,-0.0355,-0.0378,-0.0393,-0.047,-0.0496,-0.0568,-0.0613,-0.0632,-0.0707,-0.0721,-0.0744,-0.0728,-0.0679,-0.0643,-0.062,-0.0689,-0.0695,-0.0562,-0.0561,-0.0548,-0.0546,-0.0544,-0.0543,-0.0542,0,-0.0137,-0.0153,-0.0239,-0.027,-0.0298,-0.0341,-0.0371,-0.0458,-0.0488,-0.0607,-0.0618,-0.0694,-0.0718,-0.0683,-0.0687,-0.0651,-0.0623,-0.0618,-0.0547,-0.0548,-0.055,-0.0552,-0.0553,-0.054,-0.054,-0.0539,-0.0539,0,-0.0069,-0.0099,-0.0134,-0.0193,-0.0233,-0.0285,-0.0329,-0.0354,-0.0454,-0.0542,-0.0581,-0.0602,-0.0635,-0.0623,-0.0638,-0.0589,-0.0625,-0.0602,-0.0603,-0.0537,-0.0538,-0.0543,-0.0546,-0.0534,-0.0535,-0.0535,-0.0535,0,-0.0002,-0.0012,-0.007,-0.0117,-0.0168,-0.0212,-0.0249,-0.0297,-0.0351,-0.0484,-0.0474,-0.055,-0.0611,-0.059,-0.0573,-0.0562,-0.0519,-0.0472,-0.048,-0.0485,-0.0445,-0.0437,-0.0395,0,0,0,0,0,0.0057,0.003,-0.0005,-0.0064,-0.0108,-0.0154,-0.0224,-0.027,-0.036,-0.0364,-0.0427,-0.044,-0.0458,-0.0482,-0.0451,-0.0521,-0.0516,-0.0479,-0.0464,-0.0507,-0.0513,-0.0469,0,0,0,0,0,0,0.0075,0.0057,0.0017,-0.0012,-0.0042,-0.0097,-0.0145,-0.0214,-0.0217,-0.0306,-0.0313,-0.0384,-0.0402,-0.0467,-0.0434,-0.0441,-0.0411,-0.0519,-0.0516,-0.0504,-0.0509,-0.0513,-0.0471,0,0,0,0,0]},{"header":{"parameterUnit":"m.s-1","parameterCategory":2,"la1":30.2991,"la2":30.254,"lo1":-89.0895,"lo2":-89.0444,"dy":0.0017,"dx":0.0017,"nx":28,"ny":28,"refTime":"2024-05-29T21:00:00:Z","depth":"4","parameterNumber":3,"parameterNumberName":"V-component_of_CURRENTS"},"data":[0,0,0,0,0,0,0,0,0,0,0,0,0,0,0,0,0,0,0,0,0,0,0,0,0,0,0,0,0,0,0,0,0,0,0,0,0,0,0,0,0,0,0,0,0,0,0,0,0,0,0,0,0,0,0,0,0,0,0.0033,0.0032,0,0.0002,0.0002,0.0002,-0.0002,-0.0002,-0.0001,-0.0001,0.0032,0.0033,0.0033,0,0,0,0,0,0,0,0,0,0,0,0,0,0.0105,0.0103,0.0033,0.0032,0.0032,0.0002,0.0002,0.0002,-0.0002,-0.0002,-0.0001,-0.0001,0.0032,0.0032,0.0033,0,0,0,0,0,0,0,0,0,0,0,0,0,0.0074,0.0103,0.0033,0.0027,0.0026,0.0002,0.0002,0.0001,-0.0002,-0.0002,-0.0001,-0.0001,0.0031,0.0032,0.0033,0.003,0,0,0.0036,0.0036,0,0,0,0,0,0,0,0,0.0076,0.0071,0.0028,0.0027,0.0026,0.0004,0.0039,0.0014,-0.0002,0.0008,-0.0001,-0.0001,0.0028,0.0029,0.0022,0.0031,0.0033,0.0036,0.0037,0.0037,0.0037,0,0,0,0,0,0,0,0.0078,0.0073,0.0021,0.0027,0.0026,0.0031,0.0027,0.0034,0.0017,0.0007,0.0007,0.0004,0.0028,0.0021,0.0023,0.0033,0.0036,0.0037,0.0037,0.0038,0.0087,0.0088,0,0,0,0,0,0,0.008,0.0074,0.0021,0.002,0.0052,0.003,0.0025,0.0011,0.0016,0.0016,0.0003,0.0004,0.0019,0.0022,0.0024,0.005,0.0037,0.0038,0.0038,0.0087,0.0088,0.0088,0,0,0,0,0,0,0.0081,0.0075,0.0023,0.0047,0.0041,0.0028,0.0012,0.001,0.0004,0.0012,0.0014,-0.0,0.002,0.0023,0.0014,0.005,0.0038,0.0039,0.0086,0.0087,0.0088,0.0083,0,0,0,0,0,0,0.0083,0.0075,0.0063,0.0047,0.004,0.0005,0.0011,0.0009,0.0001,0.0001,0.001,0.0013,0.002,0.0012,0.0014,0.0051,0.004,0.0085,0.0086,0.0088,0.0083,0.0084,0.0086,0,0,0,0,0,0.0086,0.0065,0.0062,0.0056,0.0023,0.0004,0.0001,-0.0006,0.0001,-0.0008,-0.0011,0.0013,0.0025,0.0011,0.0015,0.0053,0.0084,0.0086,0.0088,0.0082,0.0084,0.0086,0,0,0,0,0,0,0.009,0.0062,0.0059,0.0031,0.0018,0.0004,-0.0007,-0.0007,-0.0017,-0.0012,-0.0003,-0.0001,0.0014,0.0026,0.0011,0.0074,0.007,0.0072,0.0065,0.0067,0.0068,0.0061,0.004,0,0,0,0,0,0.0085,0.0061,0.0043,0.0022,0.0014,0.0005,-0.0003,-0.0004,-0.0013,-0.0017,-0.001,0.0006,0.0024,0.0035,0.0046,0.0064,0.0088,0.01,0.0102,0.0103,0.01,0.0148,0.0153,0.0094,0.0094,0.0094,0,0,0.0082,0.0063,0.0051,0.0021,0.0011,-0.0006,0.0001,-0.001,-0.0019,-0.001,-0.0019,0.0004,0.0026,0.0047,0.006,0.0062,0.0136,0.0105,0.0106,0.0102,0.015,0.0156,0.0161,0.0095,0.0095,0.0095,0,0,0.0065,0.0047,0.0024,0.0011,-0.0005,-0.0012,-0.0015,-0.0025,-0.0025,-0.003,-0.0015,0.0011,0.0033,0.0056,0.0072,0.0088,0.0137,0.012,0.0127,0.0174,0.0179,0.0184,0.0234,0.0243,0.0127,0.0127,0.0127,0,0.0065,0.0032,0.0016,-0.0006,-0.0014,-0.0016,-0.003,-0.0038,-0.0047,-0.0042,-0.0031,0.0017,0.0037,0.0071,0.0087,0.0093,0.0131,0.0115,0.0175,0.018,0.0185,0.0235,0.0245,0.0127,0.0127,0.0127,0.0127,0,0.0029,0.001,-0.0003,-0.0034,-0.0045,-0.0057,-0.0065,-0.007,-0.0057,-0.0052,-0.0018,0.0009,0.0049,0.0074,0.0086,0.0145,0.0166,0.0165,0.0167,0.0191,0.0242,0.0253,0.0127,0.0127,0.0127,0.0127,0,0,0.0024,-0.002,-0.002,-0.0031,-0.0055,-0.0065,-0.008,-0.0088,-0.0081,-0.0063,-0.004,0.0006,0.0047,0.0069,0.0108,0.0151,0.0226,0.0182,0.0185,0.0227,0.0346,0.0261,0.0265,0.0246,0.0247,0.0248,0.0372,0,0.0008,-0.0036,-0.0049,-0.0072,-0.0092,-0.0093,-0.0106,-0.0107,-0.0091,-0.0071,-0.0026,0.0018,0.0039,0.009,0.0131,0.0205,0.0253,0.0193,0.0321,0.0325,0.0242,0.0273,0.0253,0.038,0.0382,0.0384,0.0385,0,-0.0014,-0.0041,-0.0072,-0.0088,-0.0093,-0.0096,-0.0096,-0.0104,-0.0085,-0.0064,-0.0016,0.0026,0.0102,0.0118,0.0244,0.0213,0.0282,0.0329,0.0335,0.0261,0.0258,0.035,0.0405,0.0403,0.0402,0.04,0.0399,0,-0.0014,-0.0045,-0.0069,-0.0078,-0.0106,-0.0096,-0.0094,-0.0089,-0.0092,-0.0036,-0.001,0.0065,0.0135,0.0215,0.0318,0.0303,0.0449,0.0438,0.042,0.0416,0.0458,0.0451,0.0522,0.0522,0.0521,0.0521,0.0521,0,-0.0032,-0.0038,-0.0061,-0.0075,-0.008,-0.0084,-0.0075,-0.0067,-0.005,-0.0054,0.0018,0.004,0.0168,0.0256,0.0334,0.041,0.0471,0.0424,0.0439,0.0455,0.0447,0.0466,0.0458,0.0526,0.0525,0.0524,0.0523,0,-0.0025,-0.0049,-0.0072,-0.0089,-0.0084,-0.008,-0.0073,-0.0075,-0.0042,-0.0037,-0.001,0.0057,0.0158,0.0272,0.0416,0.0431,0.0514,0.0528,0.0553,0.0566,0.0447,0.0438,0.0512,0.051,0.0509,0.0507,0.0506,0,-0.0029,-0.0045,-0.0075,-0.0085,-0.0082,-0.0076,-0.0082,-0.007,-0.0087,-0.0052,-0.0062,0.0051,0.0098,0.0258,0.0354,0.0496,0.0494,0.055,0.0473,0.0438,0.0446,0.0439,0.0432,0.0503,0.0503,0.0502,0.0502,0,-0.0033,-0.0042,-0.0065,-0.0091,-0.0094,-0.012,-0.0124,-0.014,-0.0143,-0.0109,-0.0087,-0.001,0.0088,0.0203,0.0335,0.0418,0.0515,0.0531,0.0534,0.0463,0.0428,0.0436,0.0431,0.0496,0.0497,0.0497,0.0498,0,-0.0022,-0.0036,-0.0072,-0.0081,-0.0109,-0.0153,-0.016,-0.0174,-0.0183,-0.0154,-0.0155,-0.0032,0.0048,0.016,0.026,0.0354,0.0343,0.0354,0.0366,0.0374,0.027,0.0202,0.0218,0,0,0,0,0,-0.0014,-0.0029,-0.0056,-0.0097,-0.0134,-0.0154,-0.0192,-0.0208,-0.0214,-0.0205,-0.018,-0.0098,0.0033,0.009,0.0167,0.0197,0.035,0.0282,0.0367,0.0463,0.047,0.036,0,0,0,0,0,0,-0.0017,-0.0041,-0.0054,-0.0104,-0.0136,-0.0192,-0.0222,-0.0237,-0.0242,-0.0221,-0.0141,-0.0102,0.0039,0.0013,0.0171,0.0194,0.0245,0.0354,0.0354,0.0459,0.0465,0.0471,0.0361,0,0,0,0,0]}]]